星链-36394(STARLINK-36394)

导读

STARLINK-36394是由美国于2026年1月25日发射的卫星,隶属于SpaceX星链(Starlink)项目。星链项目旨在构建全球卫星互联网星座,为全球各地提供高速低延迟的宽带服务,该卫星的发射延续了星链星座持续扩容的进程,进一步推进了全球卫星互联网络的部署。

Basic Information
目录编号:
67566
目录名称:
STARLINK-36394
国际标识:
2026-016F
轨道中心:
EARTH
卫星名称:
星链-36394
卫星全名:
星链-36394(STARLINK-36394)
卫星状态:
在轨 (已飞行222 天)
发射日期:
2026-01-25 UTC
国别 :
美国 (US)
星等 :
--
Orbit Information
数据来源 国际轨道数据
星历时间: 2026-09-04T10:23:29+0800
13小时前
查看轨道信息
半长轴: 6843.651km
偏心率: 0.0002067
轨道倾角: 97.286°
近地点辐角 87.470°
升交点赤经 305.941°
平近点角 272.678°
近地点: 464.099km
远地点: 466.929km
周期: 93.906分钟
每日圈数: 15.334549
Detailed Information
固有亮度:
5
最大亮度:
2.5
卫星平台:
Starlink V1.0
覆盖范围:
全球
运营商:
太空探索技术公司
运营商所在国:
美国
制造商(研发单位):
太空探索技术公司
制造商所在国:
美国
使用方式:
暂无
Satellite Introduction
Starlink 计划是 SpaceX 推出的全球卫星互联网项目,通过发射低轨道卫星,为全球尤其是偏远地区提供高速、低延迟的互联网服务。自 2019 年起,Starlink 已部署数千颗卫星,旨在缩小全球数字鸿沟,推动互联网普及。该项目还为军事、航空等行业提供通信支持,带来广泛经济效益。
2D Orbit Map
3D Orbit Map
Orbit Altitude Analysis Chart
Orbit Inclination Analysis Chart
Orbit Comprehensive Analysis Chart
View Comprehensive Chart
Conjunction Data List
Event ID Objects TCA Miss Dist (km) Collision Risk Probability Collision Risk Index (CRI) Action
CDM_260905-154905-815906-756621
2026-09-05T
15:49:48+0000
1.046 km
极远距离
2.288581E-5 中风险 0.62
CDM_260906-081806-541006-756621
2026-09-06T
08:18:47+0000
2.599 km
极远距离
1.631309E-6 低风险 0.39
CDM_260905-144606-074606-756621
OBJECT B (60746)
2026-09-05T
14:46:18+0000
2.499 km
极远距离
1.403309E-6 低风险 0.38
CDM_260827-235304-783406-756622
2026-08-27T
23:53:36+0000
2.948 km
极远距离
1.30642E-6 低风险 0.37